KE5HAM Weather Reports


Display with metric or nautical units.
time (UTC)temp
F
wind
direction
speed
MPH
gust
MPH
rain 1hr
in
rain 24hr
in
rain mn
in
humidity
%
barometer
mb
20240622181006 92 0 0.0 0.0 0.00 0.26 0.00 71 1015.3
20240622180504 92 0 0.0 0.0 0.00 0.26 0.00 68 1015.4
20240622180006 91 0 0.0 0.0 0.00 0.26 0.00 71 1015.4
20240622175505 91 0 0.0 0.0 0.00 0.26 0.00 70 1015.4
20240622175004 91 0 0.0 0.0 0.00 0.26 0.00 71 1015.4
20240622174505 90 0 0.0 0.0 0.00 0.26 0.00 73 1015.5
20240622174005 90 0 0.0 0.0 0.00 0.26 0.00 75 1015.5
20240622173504 90 0 0.0 0.0 0.00 0.26 0.00 72 1015.5
20240622172504 91 0 0.0 0.0 0.00 0.26 0.00 73 1015.6
20240622172006 91 0 0.0 0.0 0.00 0.26 0.00 73 1015.7
20240622171504 91 0 0.0 0.0 0.00 0.26 0.00 72 1015.7
20240622171006 91 0 0.0 0.0 0.00 0.26 0.00 75 1015.8
20240622165506 91 0 0.0 0.0 0.00 0.26 0.00 71 1015.6
20240622164005 91 0 0.0 0.0 0.00 0.26 0.00 70 1015.8
20240622163005 91 0 0.0 0.0 0.00 0.26 0.00 72 1015.9
20240622162504 91 0 0.0 0.0 0.00 0.26 0.00 71 1015.9
20240622161005 90 0 0.0 0.0 0.00 0.26 0.00 72 1016.0
20240622160505 90 0 0.0 0.0 0.00 0.26 0.00 75 1016.0
20240622160005 89 0 0.0 0.0 0.00 0.26 0.00 75 1016.0
20240622155504 89 0 0.0 0.0 0.00 0.26 0.00 75 1016.0
20240622155007 89 0 0.0 0.0 0.00 0.26 0.00 75 1016.0
20240622154006 89 0 0.0 0.0 0.00 0.26 0.00 79 1016.1
20240622153505 89 0 0.0 0.0 0.00 0.26 0.00 81 1016.1
20240622153005 89 0 0.0 0.0 0.00 0.26 0.00 81 1016.0
20240622152505 89 0 0.0 0.0 0.00 0.26 0.00 81 1016.1
20240622151507 89 0 0.0 0.0 0.00 0.26 0.00 80 1016.2
20240622151007 89 0 0.0 0.0 0.00 0.26 0.00 79 1016.2
20240622150504 89 0 0.0 0.0 0.00 0.26 0.00 82 1016.4
20240622150005 89 0 0.0 0.0 0.00 0.26 0.00 80 1016.3
20240622145505 89 0 0.0 0.0 0.00 0.26 0.00 81 1016.4
20240622145005 89 0 0.0 0.0 0.00 0.26 0.00 82 1016.4
20240622144505 88 0 0.0 0.0 0.00 0.26 0.00 85 1016.5
20240622143504 87 0 0.0 0.0 0.00 0.26 0.00 86 1016.5
20240622143005 86 0 0.0 0.0 0.00 0.26 0.00 87 1016.6
20240622142505 86 0 0.0 0.0 0.00 0.26 0.00 89 1016.6
20240622142005 85 0 0.0 0.0 0.00 0.26 0.00 91 1016.7
20240622141504 84 0 0.0 0.0 0.00 0.26 0.00 91 1016.7
20240622141004 84 0 0.0 0.0 0.00 0.26 0.00 91 1016.8
20240622140504 83 0 0.0 0.0 0.00 0.26 0.00 91 1016.8
20240622140006 83 0 0.0 0.0 0.00 0.26 0.00 92 1016.8
20240622135504 83 0 0.0 0.0 0.00 0.26 0.00 94 1016.8
20240622134503 82 0 0.0 0.0 0.00 0.26 0.00 95 1016.7
20240622133504 81 0 0.0 0.0 0.00 0.26 0.00 95 1016.5
20240622132504 81 0 0.0 0.0 0.00 0.26 0.00 96 1016.6
20240622132006 80 0 0.0 0.0 0.00 0.26 0.00 97 1016.6
20240622130505 80 0 0.0 0.0 0.00 0.26 0.00 97 1016.6
20240622130004 79 0 0.0 0.0 0.00 0.26 0.00 97 1016.5
20240622125506 79 0 0.0 0.0 0.00 0.26 0.00 97 1016.5
20240622125005 79 0 0.0 0.0 0.00 0.26 0.00 97 1016.5
20240622123504 78 0 0.0 0.0 0.00 0.26 0.00 97 1016.6
20240622123005 78 0 0.0 0.0 0.00 0.26 0.00 97 1016.6
20240622122504 78 0 0.0 0.0 0.00 0.26 0.00 97 1016.6
20240622122004 78 0 0.0 0.0 0.00 0.26 0.00 97 1016.6
20240622121505 77 0 0.0 0.0 0.00 0.26 0.00 97 1016.6
20240622121004 77 0 0.0 0.0 0.00 0.26 0.00 97 1016.5
20240622120505 77 0 0.0 0.0 0.00 0.26 0.00 97 1016.4
20240622120004 77 0 0.0 0.0 0.00 0.26 0.00 97 1016.4
20240622115505 77 0 0.0 0.0 0.00 0.26 0.00 97 1016.4
20240622115005 77 0 0.0 0.0 0.00 0.26 0.00 97 1016.4
20240622114505 77 0 0.0 0.0 0.00 0.26 0.00 97 1016.3
20240622113005 77 0 0.0 0.0 0.00 0.26 0.00 97 1016.2
20240622112006 77 0 0.0 0.0 0.00 0.26 0.00 97 1016.2
20240622111504 77 0 0.0 0.0 0.00 0.26 0.00 97 1016.2
20240622110505 77 0 0.0 0.0 0.00 0.26 0.00 97 1016.2
20240622105505 77 0 0.0 0.0 0.00 0.26 0.00 97 1016.3
20240622104505 77 0 0.0 0.0 0.00 0.26 0.00 97 1016.2
20240622104004 77 0 0.0 0.0 0.00 0.26 0.00 97 1016.2
20240622103504 77 0 0.0 0.0 0.00 0.26 0.00 97 1016.2
20240622102505 77 0 0.0 0.0 0.00 0.26 0.00 97 1016.3
20240622102006 77 0 0.0 0.0 0.00 0.26 0.00 97 1016.3
20240622101504 77 0 0.0 0.0 0.00 0.26 0.00 97 1016.2
20240622101005 77 0 0.0 0.0 0.00 0.26 0.00 97 1016.3
20240622100505 77 0 0.0 0.0 0.00 0.26 0.00 97 1016.3
20240622100006 77 0 0.0 0.0 0.00 0.26 0.00 97 1016.2
20240622094505 78 0 0.0 0.0 0.00 0.26 0.00 97 1016.1
20240622094006 78 0 0.0 0.0 0.00 0.26 0.00 97 1016.1
20240622093504 78 0 0.0 0.0 0.00 0.26 0.00 97 1016.0
20240622093005 78 0 0.0 0.0 0.00 0.26 0.00 97 1016.0
20240622092006 78 0 0.0 0.0 0.00 0.26 0.00 96 1016.0
20240622091505 78 0 0.0 0.0 0.00 0.26 0.00 96 1016.0
20240622091006 78 0 0.0 0.0 0.00 0.26 0.00 96 1016.0
20240622090503 78 0 0.0 0.0 0.00 0.26 0.00 96 1015.9
20240622090004 78 0 0.0 0.0 0.00 0.26 0.00 96 1015.9
20240622085505 78 0 0.0 0.0 0.00 0.26 0.00 96 1015.9
20240622085005 78 0 0.0 0.0 0.00 0.26 0.00 96 1016.0
20240622084006 78 0 0.0 0.0 0.00 0.26 0.00 96 1016.0
20240622083504 78 0 0.0 0.0 0.00 0.26 0.00 96 1016.1
20240622083005 78 0 0.0 0.0 0.00 0.26 0.00 96 1016.1
20240622082504 78 0 0.0 0.0 0.00 0.26 0.00 96 1016.1
20240622082005 78 0 0.0 0.0 0.00 0.26 0.00 96 1016.1
20240622081505 78 0 0.0 0.0 0.00 0.26 0.00 96 1016.1
20240622081005 78 0 0.0 0.0 0.00 0.26 0.00 96 1016.1
20240622080505 78 0 0.0 0.0 0.00 0.26 0.00 96 1016.1
20240622080006 78 0 0.0 0.0 0.00 0.26 0.00 96 1016.1
20240622075504 78 0 0.0 0.0 0.00 0.26 0.00 96 1016.1
20240622075005 78 0 0.0 0.0 0.00 0.26 0.00 96 1016.2
20240622074504 78 0 0.0 0.0 0.00 0.26 0.00 96 1016.2
20240622074005 78 0 0.0 0.0 0.00 0.26 0.00 96 1016.2
20240622073504 78 0 0.0 0.0 0.00 0.26 0.00 96 1016.2
20240622073006 78 0 0.0 0.0 0.00 0.26 0.00 96 1016.2
20240622072504 78 0 0.0 0.0 0.00 0.26 0.00 96 1016.2
20240622071505 78 0 0.0 0.0 0.00 0.26 0.00 96 1016.0
20240622071006 78 0 0.0 0.0 0.00 0.26 0.00 96 1016.1
20240622070504 78 0 0.0 0.0 0.00 0.26 0.00 96 1016.1
20240622065506 78 0 0.0 0.0 0.00 0.26 0.00 96 1016.1
20240622065006 79 0 0.0 0.0 0.00 0.26 0.00 96 1016.2
20240622064504 79 0 0.0 0.0 0.00 0.26 0.00 96 1016.2
20240622063505 79 0 0.0 0.0 0.00 0.26 0.00 96 1016.2
20240622063006 79 0 0.0 0.0 0.00 0.26 0.00 96 1016.1
20240622062006 79 0 0.0 0.0 0.00 0.26 0.00 95 1016.2
20240622061006 79 0 0.0 0.0 0.00 0.26 0.00 95 1016.2
20240622060506 79 0 0.0 0.0 0.00 0.26 0.00 95 1016.2
20240622060006 79 0 0.0 0.0 0.00 0.26 0.00 95 1016.2
20240622055504 79 0 0.0 0.0 0.00 0.26 0.00 95 1016.3
20240622055005 79 0 0.0 0.0 0.00 0.26 0.00 95 1016.2
20240622053505 79 0 0.0 0.0 0.00 0.26 0.00 95 1016.4
20240622052005 79 0 0.0 0.0 0.00 0.26 0.00 95 1016.5
20240622051505 79 0 0.0 0.0 0.00 0.26 0.00 95 1016.6
20240622051006 79 0 0.0 0.0 0.00 0.26 0.00 95 1016.6
20240622050005 80 0 0.0 0.0 0.00 0.26 0.00 95 1016.7
20240622045504 80 0 0.0 0.0 0.00 0.26 0.40 95 1016.7
20240622045006 80 0 0.0 0.0 0.00 0.26 0.40 95 1016.7
20240622044504 80 0 0.0 0.0 0.00 0.26 0.40 95 1016.7
20240622044005 80 0 0.0 0.0 0.00 0.26 0.40 95 1016.7
20240622043005 80 0 0.0 0.0 0.00 0.26 0.40 95 1016.7
20240622042505 80 0 0.0 0.0 0.00 0.26 0.40 95 1016.7
20240622042005 80 0 0.0 0.0 0.00 0.26 0.40 95 1016.7
20240622014005 82 0 0.0 0.0 0.00 0.26 0.40 89 1015.5
20240622013505 82 0 0.0 0.0 0.00 0.26 0.40 89 1015.4
20240622013005 82 0 0.0 0.0 0.00 0.26 0.40 89 1015.4
20240622012505 83 0 0.0 0.0 0.00 0.26 0.40 89 1015.4
20240622012006 83 0 0.0 0.0 0.00 0.26 0.40 88 1015.4
20240622011504 83 0 0.0 0.0 0.00 0.26 0.40 87 1015.3
20240622010004 84 0 0.0 0.0 0.00 0.26 0.40 87 1015.3
20240622005505 84 0 0.0 0.0 0.00 0.26 0.40 87 1015.2
20240622005006 85 0 0.0 0.0 0.00 0.26 0.40 87 1015.1
20240622004504 85 0 0.0 0.0 0.00 0.26 0.40 86 1015.1
20240622004005 85 0 0.0 0.0 0.00 0.26 0.40 86 1015.1
20240622003506 85 0 0.0 0.0 0.00 0.26 0.40 85 1015.1
20240622003006 86 0 0.0 0.0 0.00 0.26 0.40 85 1015.0
20240622002504 86 0 0.0 0.0 0.00 0.26 0.40 85 1015.0
20240622002005 86 0 0.0 0.0 0.00 0.26 0.40 84 1015.0
20240622001504 86 0 0.0 0.0 0.00 0.26 0.40 84 1015.0
20240622001006 87 0 0.0 0.0 0.00 0.26 0.40 83 1014.9
20240622000504 87 0 0.0 0.0 0.00 0.26 0.40 83 1014.9
20240622000004 87 0 0.0 0.0 0.00 0.26 0.40 82 1014.9
20240621235506 87 0 0.0 0.0 0.00 0.26 0.40 83 1014.9
20240621235005 88 0 0.0 0.0 0.00 0.26 0.40 82 1014.9
20240621234504 88 0 0.0 0.0 0.00 0.26 0.40 82 1014.9
20240621234005 88 0 0.0 0.0 0.00 0.26 0.40 83 1014.8
20240621233506 88 0 0.0 0.0 0.00 0.26 0.40 82 1014.8
20240621233006 88 0 0.0 0.0 0.00 0.26 0.40 82 1014.9
20240621232505 88 0 0.0 0.0 0.00 0.26 0.40 82 1014.9
20240621231504 88 0 0.0 0.0 0.00 0.26 0.40 82 1014.9
20240621231010 89 0 0.0 0.0 0.00 0.26 0.40 83 1014.9
20240621230504 89 0 0.0 0.0 0.00 0.26 0.40 83 1014.9
20240621230004 89 0 0.0 0.0 0.00 0.26 0.40 82 1014.9
20240621225007 90 0 0.0 0.0 0.00 0.26 0.40 81 1014.8
20240621224506 89 0 0.0 0.0 0.00 0.26 0.40 79 1014.8
20240621224006 89 0 0.0 0.0 0.00 0.26 0.40 80 1014.9
20240621222505 89 0 0.0 0.0 0.00 0.26 0.40 81 1015.0
20240621222005 89 0 0.0 0.0 0.00 0.26 0.40 79 1015.0
20240621221503 89 0 0.0 0.0 0.00 0.26 0.40 79 1015.0
20240621221005 89 0 0.0 0.0 0.00 0.26 0.40 81 1015.1
20240621220503 89 0 0.0 0.0 0.00 0.26 0.40 81 1015.2
20240621220004 89 0 0.0 0.0 0.00 0.26 0.40 83 1015.2
20240621215505 89 0 0.0 0.0 0.00 0.26 0.40 82 1015.3
20240621215004 89 0 0.0 0.0 0.00 0.26 0.40 82 1015.3
20240621214503 88 0 0.0 0.0 0.00 0.26 0.40 83 1015.3
20240621214004 88 0 0.0 0.0 0.00 0.26 0.40 83 1015.4
20240621213004 88 0 0.0 0.0 0.00 0.26 0.40 87 1015.5
20240621212504 87 0 0.0 0.0 0.00 0.26 0.40 88 1015.6
20240621212005 87 0 0.0 0.0 0.00 0.26 0.40 88 1015.7
20240621211504 86 0 0.0 0.0 0.00 0.26 0.40 89 1015.7
20240621211005 85 0 0.0 0.0 0.00 0.26 0.40 91 1015.7
20240621210503 85 0 0.0 0.0 0.00 0.26 0.40 93 1015.8
20240621210004 84 0 0.0 0.0 0.00 0.26 0.40 94 1015.9
20240621205504 85 0 0.0 0.0 0.00 0.26 0.40 95 1015.9
20240621204503 84 0 0.0 0.0 0.05 0.26 0.40 96 1015.9
20240621204005 84 0 0.0 0.0 0.21 0.26 0.40 96 1015.9
20240621203005 83 0 0.0 0.0 0.26 0.26 0.40 96 1015.9
20240621202504 82 0 0.0 0.0 0.26 0.26 0.40 95 1016.1
20240621202005 82 0 0.0 0.0 0.26 0.26 0.40 95 1016.2
20240621201503 82 0 0.0 0.0 0.26 0.26 0.40 95 1016.3
20240621201005 81 0 0.0 0.0 0.26 0.26 0.40 95 1016.3
20240621200504 80 0 0.0 0.0 0.26 0.26 0.40 95 1016.2
20240621200004 80 0 0.0 0.0 0.26 0.26 0.40 94 1016.3
20240621195504 80 0 0.0 0.0 0.26 0.26 0.40 92 1016.4
20240621195004 80 0 0.0 0.0 0.25 0.25 0.39 89 1016.7
20240621194504 82 0 0.0 0.0 0.21 0.21 0.35 84 1016.9
20240621194004 89 0 0.0 0.0 0.05 0.05 0.19 75 1016.8
20240621193505 93 0 0.0 0.0 0.00 0.00 0.14 73 1016.6
20240621193004 94 0 0.0 0.0 0.00 0.00 0.14 73 1016.3
20240621192504 94 0 0.0 0.0 0.00 0.00 0.14 73 1016.2
20240621192004 93 0 0.0 0.0 0.00 0.00 0.14 73 1016.3
20240621191004 93 0 0.0 0.0 0.00 0.00 0.14 72 1016.4
20240621190504 94 0 0.0 0.0 0.00 0.00 0.14 70 1016.5
20240621190004 94 0 0.0 0.0 0.00 0.00 0.14 72 1016.5
20240621185504 94 0 0.0 0.0 0.00 0.00 0.14 70 1016.6
20240621185004 94 0 0.0 0.0 0.00 0.00 0.14 71 1016.6
20240621184504 93 0 0.0 0.0 0.00 0.00 0.14 71 1016.7
20240621184007 93 0 0.0 0.0 0.00 0.00 0.14 72 1016.9
20240621183504 93 0 0.0 0.0 0.00 0.00 0.14 74 1017.0
20240621182504 92 0 0.0 0.0 0.00 0.00 0.14 73 1017.0
20240621182004 93 0 0.0 0.0 0.00 0.00 0.14 72 1017.1